Home   Weather   Davos   Past weeks

Flag for Switzerland Past Weather in Davos, Graubünden, Switzerland — Yesterday and Last 2 Weeks

Now
55 °F

Cool.


Feels Like: 55 °F
Forecast: 38 / 62 °F
Wind: 5 mph from Southwest

Location: Chur

Current Time: Sep 27, 2016 at 5:48:09 AM

Latest Report: Sep 27, 2016 at 4:00 AM


Visibility: N/A

Pressure: 30.21 "Hg (25.13 "Hg at 1540m altitude)

Humidity: 84%

Dew Point: 50 °F

Location of DavosLocation

Past Weather in Davos — Graph

°F

Davos Temperature Yesterday

Maximum temperature yesterday: 70 °F (at 3:00 PM)
Minimum temperature yesterday: 49 °F (at 6:00 AM)
Average temperature yesterday: 59 °F

High & Low Weather Summary for the Past Weeks

 TemperatureHumidityPressure
High84 °F (Sep 13, 3:00 PM)99% (Sep 19, 3:00 AM)30.35 "Hg (Sep 19, 3:00 AM)
Low49 °F (Sep 22, 8:00 AM)32% (Sep 14, 2:00 PM)29.80 "Hg (Sep 14, 5:00 PM)
Average61 °F75%30.05 "Hg
* Reported Sep 12 4:00 AM — Sep 27 4:00 AM, Davos, Weather by CustomWeather, © 2016

Note: Actual official high and low records may vary slightly from our data, if they occured in-between our weather recording intervals... More about our weather records

Advertising

Davos Weather History for the Previous 24 Hours

Scroll right to see more
 ConditionsComfort  
Time TempWeatherWind HumidityBarometerVisibility
4:00 AM
Tue, Sep 27
55 °FCool.5 mph84%30.21 "HgN/A
3:00 AM55 °FCool.2 mph87%30.21 "HgN/A
2:00 AM57 °FCool.3 mph82%30.20 "HgN/A
1:00 AM57 °FCool.5 mph83%30.19 "HgN/A
12:00 AM56 °FCool.3 mph87%30.20 "HgN/A
11:00 PM
Mon, Sep 26
57 °FOvercast.1 mph85%30.19 "Hg9 mi
10:00 PM55 °FCool.No wind92%30.18 "HgN/A
9:00 PM58 °FCool.1 mph88%30.16 "HgN/A
8:00 PM62 °FPassing clouds.3 mph77%30.12 "Hg9 mi
7:00 PM64 °FMild.6 mph71%30.09 "HgN/A
6:00 PM67 °FMild.6 mph62%30.05 "HgN/A
5:00 PM69 °FScattered clouds.8 mph56%30.03 "Hg12 mi
4:00 PM70 °FMild.12 mph53%30.03 "HgN/A
3:00 PM70 °FMild.13 mph54%30.04 "HgN/A
2:00 PM69 °FPassing clouds.10 mph55%30.07 "Hg12 mi
1:00 PM67 °FMild.7 mph56%30.10 "HgN/A
12:00 PM64 °FMild.3 mph54%30.13 "HgN/A
11:00 AM61 °FFog.5 mph62%30.16 "Hg9 mi
10:00 AM56 °FCool.2 mph71%30.20 "HgN/A
9:00 AM51 °FCool.2 mph86%30.23 "HgN/A
8:00 AM51 °FPassing clouds.3 mph86%30.22 "Hg12 mi
7:00 AM51 °FCool.3 mph89%30.22 "HgN/A
6:00 AM49 °FCool.2 mph91%30.22 "HgN/A
5:00 AM51 °FPassing clouds.1 mph93%30.22 "Hg11 mi
Weather by CustomWeather, © 2016

See weather overviewHow to use our weather pages